2021-015U (47717 NORAD) Tracking and Keplerian Element Data

This shows tracking and keplerian element data for the satellite.

Feedback or suggestion? Click here.




ElementValue
Catalog47717
Name2021-015U
Epoch Orbit447
Epoch Day88.7209479
Epoch Year2021
RAAN163.7612
Inclination97.4558
Eccentricity0.0012072
Argument of Perigee179.2904
Mean Anonmoly180.8631
Mean Motion15.21019102
Decay Rate-7E-07
L11 47717U 21015U 21088.72094790 -.00000070 00000-0 00000-0 0 9990
L22 47717 97.4558 163.7612 0012072 179.2904 180.8631 15.21019102 4470

Live tracking and technical data element details for 2021-015U (NORAD 47717). 2021-015U can be tracked NOW for your location showing map with azimuth and elevation plus other details from your city location.

Track the satellite on the map from your city or location and see movement details for azimuth, elevation, latitude, longitude, range, height, and movement on the map or in text.







IsCatalogInMostPopularTable: catalog: 47717, numindb: 12
Update: records affected: 1



GetName: 47717 2021-015U

Hit Count: updated at: Sat, 10 Apr 2021 18:49:16 GMT